Regional Weather Roundup
Issued by NWS Jackson, KY

Home | Current Version | Previous Version | Text Only | Print | Product List | Glossary On
Versions: 1 2 3 4 5 6 7 8 9 10 11 12 13 14 15 16 17 18 19 20 21 22 23 24 25 26 27 28 29 30 31 32 33 34 35 36 37 38 39 40 41 42 43 44 45 46 47 48 49 50
000
ASUS43 KJKL 162210
RWRJKL

EAST KENTUCKY HOURLY WEATHER ROUNDUP
NATIONAL WEATHER SERVICE JACKSON KY
600 PM EDT MON OCT 16 2017

NOTE: "FAIR" INDICATES FEW OR NO CLOUDS BELOW 12,000 FEET WITH
NO SIGNIFICANT WEATHER AND/OR OBSTRUCTIONS TO VISIBILITY.

* THESE REPORTS ARE NOT UNDER NWS QUALITY CONTROL AND MAY NOT
  REPORT WEATHER SUCH AS PRECIPITATION AND FOG.

KYZ079-080-083-085-087-088-110-112-115-119-120-162300
...EASTERN KENTUCKY...

CITY           SKY/WX    TMP DP  RH WIND       PRES   REMARKS
JACKSON        PTCLDY    57  37  47 CALM      30.27R
LONDON         MOSUNNY   60  37  42 N6        30.27R
SOMERSET*      MOSUNNY   57  36  44 N8        30.28S
MONTICELLO*    SUNNY     58  40  51 N14       30.29R
WILLIAMSBURG*  PTCLDY    57  39  51 N7        30.26S
MIDDLESBORO*   SUNNY     59  40  48 NW6       30.25S
HARLAN APT*    CLEAR     55  36  47 NW3       30.26R
PIKE CO APT*     N/A     55  37  52 N7        30.26S
BIG SANDY APT* CLEAR     57  40  52 N6        30.27R
MOREHEAD APT*  PTCLDY    59  37  44 N7        30.29S
$$

KYZ035-036-041-042-044-050-067-078-099-162300
...CENTRAL KENTUCKY...

CITY           SKY/WX    TMP DP  RH WIND       PRES   REMARKS
MT STERLING*   MOCLDY    59  37  44 N5        30.29F
FLEMING/MASON* MOCLDY    58  37  45 N8        30.29S
DANVILLE*      MOSUNNY   59  37  44 NE8       30.29S
LEXINGTON      PTSUNNY   58  40  51 NW5       30.28S
FRANKFORT      SUNNY     61  37  41 NW3       30.27F
LOUISVILLE     MOSUNNY   63  36  36 N8        30.28F
LEBANON*         N/A     57  39  51 NW6       30.29R
GLASGOW*       MOSUNNY   61  38  42 N5        30.28R
BOWLING GREEN  SUNNY     63  40  42 N8        30.28F
$$

KYZ091>093-OHZ055-061-077-WVZ005-015-034-035-042-162300
...SOUTHERN OHIO/WEST VIRGINIA...

CITY           SKY/WX    TMP DP  RH WIND       PRES   REMARKS
COVINGTON      MOSUNNY   59  37  44 N6        30.27F
COLUMBUS       PTCLDY    57  38  48 N8        30.26F
DAYTON         PTCLDY    57  37  47 NW9       30.28S
WILMINGTON     CLEAR     55  37  50 NW7       30.27F
HUNTINGTON     MOCLDY    58  38  47 N6        30.26S
CHARLESTON     PTCLDY    58  35  42 NW13G18   30.24S
PINEVILLE*     CLEAR     54  38  54 MISG      30.29R
BECKLEY        PTCLDY    50  37  61 NW10      30.23R
BLUEFIELD      PTCLDY    50  31  48 N9G17     30.23R
LOGAN CO APT*  MOCLDY    54  37  54 NW7       30.25R
$$

VAZ002-007-008-TNZ017-027-036-066-071-162300
...SOUTHWEST VIRGINIA/EAST TENNESSEE...

CITY           SKY/WX    TMP DP  RH WIND       PRES   REMARKS
WISE*          MOCLDY    54  37  54 N7        30.25S
JONESVILLE*      N/A     59  37  44 N3        30.26R
ABINGDON*      PTCLDY    57  37  46 E8        30.23R
BRISTOL        PTCLDY    58  38  47 N8        30.22S
MORRISTOWN*    CLEAR     61  39  44 NE7       30.22R
SEVIERVILLE*   CLEAR     61  41  48 NE6G12    30.21S
KNOXVILLE      MOSUNNY   62  43  49 N10       30.20S
LAFOLLETTE*    CLEAR     59  39  47 N8G14     30.27S
OAK RIDGE      SUNNY     63  41  44 VRB7      30.24R
CROSSVILLE     MOSUNNY   57  39  51 N8        30.25R
NASHVILLE      MOSUNNY   64  40  41 N15       30.26S
$$

...KEY TO REMARKS...
VSB - VISIBILITY IN MILES
WCI - WIND CHILL INDEX
HX  - HEAT INDEX

$$



USA.gov is the U.S. government's official web portal to all federal, state and local government web resources and services.